FW6859 Weather Reports


time (UTC)temp
C
wind
direction
speed
KPH
gust
KPH
rain 1hr
cm
rain 24hr
cm
rain mn
cm
humidity
%
barometer
mb
20260904131004 14 279 1.6 3.2 0.00 0.00 0.00 82 1011.8
20260904130503 14 268 1.6 3.2 0.00 0.00 0.00 82 1011.7
20260904125503 14 270 1.6 3.2 0.00 0.00 0.00 81 1011.7
20260904125004 14 260 1.6 1.6 0.00 0.00 0.00 81 1011.6
20260904124004 15 273 1.6 3.2 0.00 0.00 0.00 81 1011.5
20260904123504 15 287 1.6 3.2 0.00 0.00 0.00 80 1011.5
20260904122503 15 147 1.6 1.6 0.00 0.00 0.00 79 1011.5
20260904122004 15 156 1.6 1.6 0.00 0.00 0.00 79 1011.4
20260904121503 15 350 1.6 3.2 0.00 0.00 0.00 78 1011.4
20260904121003 15 275 1.6 3.2 0.00 0.00 0.00 79 1011.4
20260904120503 15 298 3.2 4.8 0.00 0.00 0.00 78 1011.4
20260904120004 15 236 1.6 3.2 0.00 0.00 0.00 77 1011.4
20260904115503 15 237 1.6 4.8 0.00 0.00 0.00 77 1011.4
20260904115003 16 219 3.2 4.8 0.00 0.00 0.00 77 1011.4
20260904114504 16 257 1.6 3.2 0.00 0.00 0.00 77 1011.3
20260904113504 16 207 3.2 4.8 0.00 0.00 0.00 76 1011.3
20260904113004 16 208 3.2 8.0 0.00 0.00 0.00 75 1011.3
20260904112503 16 263 1.6 3.2 0.00 0.00 0.00 74 1011.3
20260904112004 16 240 3.2 4.8 0.00 0.00 0.00 74 1011.3
20260904111504 16 225 1.6 4.8 0.00 0.00 0.00 74 1011.3
20260904110504 17 225 3.2 4.8 0.00 0.00 0.00 73 1011.2
20260904110003 17 200 3.2 8.0 0.00 0.00 0.00 73 1011.1
20260904105503 17 174 4.8 9.7 0.00 0.00 0.00 72 1011.1
20260904105003 17 207 4.8 11.3 0.00 0.00 0.00 72 1011.1
20260904104504 17 181 4.8 11.3 0.00 0.00 0.00 72 1011.0
20260904103504 17 218 3.2 9.7 0.00 0.00 0.00 71 1010.9
20260904102504 17 208 4.8 11.3 0.00 0.00 0.00 71 1010.8
20260904101503 17 220 4.8 9.7 0.00 0.00 0.00 72 1010.7
20260904101003 17 229 8.0 11.3 0.00 0.00 0.00 72 1010.8
20260904100503 17 213 4.8 8.0 0.00 0.00 0.00 72 1010.8
20260904100004 17 234 3.2 8.0 0.00 0.00 0.00 73 1010.7
20260904095503 17 227 3.2 9.7 0.00 0.00 0.00 73 1010.8
20260904095003 17 204 1.6 4.8 0.00 0.00 0.00 74 1010.8
20260904094504 17 158 4.8 8.0 0.00 0.00 0.00 74 1010.7
20260904094004 17 206 3.2 8.0 0.00 0.00 0.00 75 1010.8
20260904093004 17 167 3.2 8.0 0.00 0.00 0.00 79 1010.8
20260904092503 17 202 3.2 8.0 0.00 0.00 0.00 80 1010.8
20260904092004 17 137 3.2 4.8 0.00 0.00 0.00 80 1010.8
20260904091004 17 111 3.2 3.2 0.00 0.00 0.00 80 1010.8
20260904090504 17 105 1.6 3.2 0.00 0.00 0.00 81 1010.8
20260904090004 17 195 1.6 4.8 0.00 0.00 0.00 81 1010.9
20260904085504 17 122 3.2 8.0 0.00 0.00 0.00 81 1010.8
20260904085003 17 108 3.2 8.0 0.00 0.00 0.00 81 1010.8
20260904084503 17 128 4.8 8.0 0.00 0.00 0.00 81 1010.8
20260904084003 17 138 4.8 8.0 0.00 0.00 0.00 81 1010.9
20260904083503 17 175 3.2 9.7 0.00 0.00 0.00 81 1010.9
20260904083004 17 171 3.2 9.7 0.00 0.00 0.00 81 1010.9
20260904082504 17 178 6.4 14.5 0.00 0.00 0.00 81 1011.0
20260904082004 17 142 6.4 14.5 0.00 0.00 0.00 81 1011.0
20260904081504 17 166 4.8 9.7 0.00 0.00 0.00 81 1011.1
20260904080504 17 138 4.8 12.9 0.00 0.00 0.00 82 1010.9
20260904075004 17 141 4.8 12.9 0.00 0.00 0.00 82 1010.9
20260904074004 17 122 6.4 11.3 0.00 0.00 0.00 83 1010.9
20260904073004 17 157 6.4 11.3 0.00 0.00 0.00 83 1010.9
20260904071003 17 151 4.8 9.7 0.00 0.00 0.00 82 1010.8
20260904070003 17 154 3.2 9.7 0.00 0.00 0.00 82 1010.9
20260904065503 17 170 4.8 8.0 0.00 0.00 0.00 81 1010.9
20260904065004 17 157 3.2 8.0 0.00 0.00 0.00 81 1011.0
20260904064504 18 137 4.8 9.7 0.00 0.00 0.00 80 1011.0
20260904064004 18 163 3.2 8.0 0.00 0.00 0.00 79 1011.0
20260904063504 18 140 6.4 11.3 0.00 0.00 0.00 79 1011.1
20260904063004 18 85 4.8 9.7 0.00 0.00 0.00 78 1011.1
20260904062503 18 101 4.8 8.0 0.00 0.00 0.00 77 1011.0
20260904062004 18 95 4.8 11.3 0.00 0.00 0.00 76 1011.0
20260904061504 18 99 3.2 4.8 0.00 0.00 0.00 75 1010.9
20260904061004 18 92 3.2 8.0 0.00 0.00 0.00 75 1010.8
20260904060503 18 84 3.2 8.0 0.00 0.00 0.00 74 1010.7
20260904060004 18 117 4.8 11.3 0.00 0.00 0.00 72 1010.7
20260904055503 18 106 3.2 8.0 0.00 0.00 0.00 70 1010.7
20260904055003 18 158 4.8 9.7 0.00 0.00 0.00 70 1010.7
20260904054504 18 128 4.8 9.7 0.00 0.00 0.00 70 1010.8
20260904054004 18 122 4.8 9.7 0.00 0.00 0.00 69 1010.8
20260904053503 18 173 3.2 8.0 0.00 0.00 0.00 69 1010.8
20260904053003 18 170 3.2 8.0 0.00 0.00 0.00 69 1010.9
20260904052503 18 194 4.8 9.7 0.00 0.00 0.00 69 1010.9
20260904052004 18 188 3.2 9.7 0.00 0.00 0.00 69 1011.0
20260904051504 18 183 4.8 8.0 0.00 0.00 0.00 69 1011.1
20260904051003 18 178 3.2 9.7 0.00 0.00 0.00 70 1011.1
20260904050503 18 203 4.8 9.7 0.00 0.00 0.00 70 1011.2
20260904045503 18 183 3.2 8.0 0.00 0.00 0.00 71 1011.2
20260904045004 18 201 3.2 8.0 0.00 0.00 0.00 70 1011.2
20260904043504 19 244 3.2 12.9 0.00 0.00 0.00 70 1011.3
20260904043004 19 241 3.2 8.0 0.00 0.00 0.00 70 1011.2
20260904042504 19 197 4.8 11.3 0.00 0.00 0.00 70 1011.1
20260904042004 19 192 6.4 11.3 0.00 0.00 0.00 70 1011.0
20260904041503 19 191 4.8 11.3 0.00 0.00 0.00 69 1011.0
20260904041003 19 194 3.2 11.3 0.00 0.00 0.00 69 1011.0
20260904035504 19 163 4.8 9.7 0.00 0.00 0.00 69 1011.0
20260904035004 19 224 4.8 9.7 0.00 0.00 0.00 70 1011.0
20260904034504 19 179 3.2 9.7 0.00 0.00 0.00 70 1010.9
20260904033504 19 201 3.2 8.0 0.00 0.00 0.00 70 1010.8
20260904033004 19 199 4.8 8.0 0.00 0.00 0.00 69 1010.7
20260904032503 19 144 1.6 4.8 0.00 0.00 0.00 69 1010.7
20260904032004 19 175 3.2 4.8 0.00 0.00 0.00 69 1010.6
20260904031504 19 153 4.8 9.7 0.00 0.00 0.00 69 1010.5
20260904031003 19 188 3.2 8.0 0.00 0.00 0.00 69 1010.5
20260904030503 19 161 4.8 9.7 0.00 0.00 0.00 69 1010.4
20260904030003 19 147 4.8 9.7 0.00 0.00 0.00 68 1010.4
20260904025503 19 123 3.2 9.7 0.00 0.00 0.00 68 1010.4
20260904025005 19 154 4.8 9.7 0.00 0.00 0.00 69 1010.5
20260904024004 19 172 3.2 4.8 0.00 0.00 0.00 68 1010.7
20260904023504 19 168 1.6 4.8 0.00 0.00 0.00 69 1010.8
20260904023004 19 197 1.6 4.8 0.00 0.00 0.00 68 1010.8
20260904022504 19 197 3.2 4.8 0.00 0.00 0.00 68 1010.9
20260904022003 19 304 1.6 4.8 0.00 0.00 0.00 67 1010.9
20260904021504 19 219 4.8 9.7 0.00 0.00 0.00 67 1011.0
20260904021003 19 241 4.8 11.3 0.00 0.00 0.00 67 1011.1
20260904020503 20 221 6.4 11.3 0.00 0.00 0.00 65 1011.0
20260904015004 20 230 6.4 12.9 0.00 0.00 0.00 63 1011.0
20260904014503 20 234 6.4 11.3 0.00 0.00 0.00 63 1011.0
20260904014004 20 221 9.7 16.1 0.00 0.00 0.00 62 1010.9
20260904013504 20 243 4.8 11.3 0.00 0.00 0.00 62 1010.9
20260904013004 20 240 8.0 14.5 0.00 0.00 0.00 62 1010.9
20260904012504 20 239 3.2 14.5 0.00 0.00 0.00 62 1011.0
20260904012004 20 250 8.0 16.1 0.00 0.00 0.00 63 1011.0
20260904011504 20 240 4.8 14.5 0.00 0.00 0.00 64 1011.0
20260904011003 20 266 4.8 14.5 0.00 0.00 0.00 64 1011.1
20260904010504 20 203 8.0 9.7 0.00 0.00 0.00 66 1011.1
20260904010004 20 250 8.0 19.3 0.00 0.00 0.00 65 1011.2
20260904005504 20 220 8.0 14.5 0.00 0.00 0.00 64 1011.2
20260904005004 20 235 4.8 11.3 0.00 0.00 0.00 65 1011.2
20260904004503 20 215 8.0 14.5 0.00 0.00 0.00 65 1011.2
20260904004004 20 207 9.7 16.1 0.00 0.00 0.00 66 1011.2
20260904003004 21 194 11.3 20.9 0.00 0.00 0.00 64 1011.2
20260904002504 21 204 8.0 14.5 0.00 0.00 0.00 65 1011.3
20260904002003 21 202 4.8 16.1 0.00 0.00 0.00 66 1011.3
20260904001503 21 221 9.7 20.9 0.00 0.00 0.00 66 1011.3
20260904001004 21 224 4.8 14.5 0.00 0.00 0.00 66 1011.3
20260904000503 21 175 4.8 14.5 0.00 0.00 0.00 66 1011.3
20260904000004 21 182 8.0 20.9 0.00 0.00 0.00 66 1011.3
20260903235504 21 179 8.0 14.5 0.00 0.00 0.00 64 1011.3
20260903235003 22 226 6.4 16.1 0.00 0.00 0.00 64 1011.2
20260903234004 22 202 4.8 12.9 0.00 0.00 0.00 63 1011.2
20260903233504 22 236 4.8 16.1 0.00 0.00 0.00 63 1011.2
20260903233004 22 150 6.4 16.1 0.00 0.00 0.00 63 1011.3
20260903232004 22 186 8.0 20.9 0.00 0.00 0.00 62 1011.4
20260903231504 22 191 11.3 20.9 0.00 0.00 0.00 62 1011.4
20260903231004 22 197 9.7 16.1 0.00 0.00 0.00 61 1011.4
20260903230504 22 143 9.7 20.9 0.00 0.00 0.00 62 1011.4
20260903230003 22 194 9.7 22.5 0.00 0.00 0.00 60 1011.5
20260903225504 22 206 4.8 20.9 0.00 0.00 0.00 59 1011.5
20260903225004 22 207 9.7 20.9 0.00 0.00 0.00 60 1011.6
20260903224504 22 199 11.3 20.9 0.00 0.00 0.00 59 1011.6
20260903224004 22 192 8.0 19.3 0.00 0.00 0.00 59 1011.6
20260903223504 22 201 11.3 20.9 0.00 0.00 0.00 58 1011.6
20260903222503 23 178 8.0 14.5 0.00 0.00 0.00 57 1011.7
20260903222003 22 175 6.4 19.3 0.00 0.00 0.00 56 1011.7
20260903221504 22 178 11.3 19.3 0.00 0.00 0.00 57 1011.8
20260903221004 22 166 11.3 22.5 0.00 0.00 0.00 57 1011.8
20260903220504 22 165 12.9 29.0 0.00 0.00 0.00 57 1011.8
20260903220003 22 174 9.7 19.3 0.00 0.00 0.00 57 1011.9
20260903215504 22 166 8.0 14.5 0.00 0.00 0.00 58 1011.9
20260903215004 22 197 8.0 16.1 0.00 0.00 0.00 60 1011.9
20260903214504 22 177 11.3 16.1 0.00 0.00 0.00 62 1011.9
20260903214004 22 155 9.7 19.3 0.00 0.00 0.00 62 1011.9
20260903213504 21 149 8.0 19.3 0.00 0.00 0.00 63 1012.0
20260903213004 21 177 9.7 20.9 0.00 0.00 0.00 63 1012.1
20260903212004 21 186 11.3 20.9 0.00 0.00 0.00 63 1012.1
20260903211503 22 149 9.7 14.5 0.00 0.00 0.00 62 1012.1
20260903211003 21 151 9.7 16.1 0.00 0.00 0.00 63 1012.2
20260903210504 21 182 8.0 16.1 0.00 0.00 0.00 63 1012.2
20260903210003 21 157 4.8 14.5 0.00 0.00 0.00 63 1012.3
20260903205503 21 184 9.7 16.1 0.00 0.00 0.00 63 1012.5
20260903205004 21 164 8.0 19.3 0.00 0.00 0.00 63 1012.5
20260903203504 21 93 8.0 14.5 0.00 0.00 0.00 63 1012.6
20260903203004 21 177 8.0 14.5 0.00 0.00 0.00 63 1012.6
20260903202504 21 168 6.4 22.5 0.00 0.00 0.00 64 1012.6
20260903201503 21 153 9.7 19.3 0.00 0.00 0.00 64 1012.7
20260903201003 21 180 8.0 14.5 0.00 0.00 0.00 64 1012.8
20260903200504 21 190 9.7 19.3 0.00 0.00 0.00 65 1012.8
20260903200004 21 161 9.7 19.3 0.00 0.00 0.00 66 1012.9
20260903195503 21 171 9.7 19.3 0.00 0.00 0.00 65 1012.9
20260903195003 21 176 12.9 20.9 0.00 0.00 0.00 65 1013.0
20260903194504 21 195 11.3 22.5 0.00 0.00 0.00 65 1013.0
20260903194004 21 166 14.5 25.7 0.00 0.00 0.00 65 1013.0
20260903193504 21 201 8.0 20.9 0.00 0.00 0.00 65 1013.0
20260903193003 21 169 11.3 20.9 0.00 0.00 0.00 66 1013.2
20260903192004 20 170 11.3 22.5 0.00 0.00 0.00 66 1013.3
20260903191503 20 166 9.7 27.4 0.00 0.00 0.00 67 1013.4
20260903191005 20 161 9.7 22.5 0.00 0.00 0.00 67 1013.4
20260903190504 20 176 14.5 25.7 0.00 0.00 0.00 67 1013.5
20260903190004 20 172 9.7 19.3 0.00 0.00 0.00 66 1013.5
20260903185004 20 153 8.0 16.1 0.00 0.00 0.00 67 1013.6
20260903184504 20 140 8.0 16.1 0.00 0.00 0.00 67 1013.7
20260903184004 20 204 8.0 14.5 0.00 0.00 0.00 67 1013.8
20260903183504 20 135 8.0 19.3 0.00 0.00 0.00 69 1013.7
20260903183004 20 182 8.0 20.9 0.00 0.00 0.00 69 1013.7
20260903182503 20 171 9.7 22.5 0.00 0.00 0.00 69 1013.8
20260903181504 20 154 8.0 16.1 0.00 0.00 0.00 68 1013.7
20260903181004 20 184 9.7 22.5 0.00 0.00 0.00 68 1013.7
20260903180504 20 154 11.3 19.3 0.00 0.00 0.00 69 1013.7
20260903180004 20 179 9.7 19.3 0.00 0.00 0.00 68 1013.8
20260903175504 20 174 9.7 19.3 0.00 0.00 0.00 68 1013.7
20260903175004 20 192 8.0 16.1 0.00 0.00 0.00 68 1013.7
20260903174504 20 133 11.3 19.3 0.00 0.00 0.00 69 1013.7
20260903173503 20 150 9.7 16.1 0.00 0.00 0.00 69 1013.6
20260903172504 20 166 6.4 14.5 0.00 0.00 0.00 70 1013.8
20260903172003 20 155 6.4 11.3 0.00 0.00 0.00 71 1013.9
20260903171004 19 186 8.0 16.1 0.00 0.00 0.00 73 1013.8
20260903170004 19 178 4.8 14.5 0.00 0.00 0.00 73 1013.8
20260903165504 19 192 8.0 14.5 0.00 0.00 0.00 73 1013.9
20260903165004 19 197 3.2 16.1 0.00 0.00 0.00 74 1013.9
20260903164503 18 176 8.0 14.5 0.00 0.00 0.00 75 1014.0
20260903163004 18 168 6.4 12.9 0.00 0.00 0.00 75 1014.1
20260903162504 18 148 6.4 14.5 0.00 0.00 0.00 76 1014.0
20260903161504 18 143 4.8 11.3 0.00 0.00 0.00 76 1014.1
20260903161004 18 162 6.4 12.9 0.00 0.00 0.00 77 1014.1
20260903160004 17 162 3.2 9.7 0.00 0.00 0.00 79 1014.3
20260903155503 17 144 3.2 8.0 0.00 0.00 0.00 81 1014.4
20260903154504 17 134 4.8 9.7 0.00 0.00 0.00 81 1014.4
20260903154004 17 144 4.8 12.9 0.00 0.00 0.00 80 1014.4
20260903153504 17 105 4.8 12.9 0.00 0.00 0.00 79 1014.4
20260903152504 17 152 4.8 9.7 0.00 0.00 0.00 80 1014.4
20260903151504 17 143 4.8 11.3 0.00 0.00 0.00 77 1014.4
20260903151004 17 192 4.8 11.3 0.00 0.00 0.00 76 1014.3
20260903150504 17 150 4.8 11.3 0.00 0.00 0.00 76 1014.3
20260903145505 17 147 8.0 12.9 0.00 0.00 0.00 75 1014.3
20260903145004 17 138 4.8 12.9 0.00 0.00 0.00 76 1014.3
20260903144503 17 131 6.4 14.5 0.00 0.00 0.00 76 1014.1
20260903143504 17 178 4.8 12.9 0.00 0.00 0.00 76 1014.2
20260903143004 17 143 3.2 8.0 0.00 0.00 0.00 76 1014.2
20260903142504 17 163 8.0 12.9 0.00 0.00 0.00 76 1014.2
20260903142004 17 137 4.8 12.9 0.00 0.00 0.00 76 1014.2
20260903141504 17 159 4.8 12.9 0.00 0.00 0.00 75 1014.1
20260903141004 17 152 3.2 12.9 0.00 0.00 0.00 74 1014.1
20260903140504 17 140 4.8 14.5 0.00 0.00 0.00 73 1013.9
20260903140003 17 126 3.2 9.7 0.00 0.00 0.00 72 1013.9
20260903135504 17 120 4.8 9.7 0.00 0.00 0.00 72 1013.8
20260903135004 17 132 4.8 9.7 0.00 0.00 0.00 71 1013.8
20260903134504 17 140 4.8 12.9 0.00 0.00 0.00 70 1013.7
20260903133004 17 161 8.0 14.5 0.00 0.00 0.00 68 1013.7
20260903132504 17 190 6.4 16.1 0.00 0.00 0.00 68 1013.6
20260903132004 17 223 4.8 14.5 0.00 0.00 0.00 68 1013.6